SCP
0 0 0 0 0 0 0 0 0 0 0 0 0 -0 -0 -0 0 0 0 0 0 0 1 1 1 1 1 1 0 0 0 0 0 0 0 0 0 0 0 0 0 0 0 0
0 0 0 0 0 0 0 0 0 0 0 0 0 0 -0 0 0 0 0 0 0 0 1 1 1 1 0 0 0 0 0 0 0 0 0 0 0 0 0 0 0 0 0 1
0 0 0 0 0 0 0 0 0 -0 0 0 0 0 -0 -0 0 0 0 0 0 0 1 1 0 0 0 0 0 0 0 0 0 0 1 1 1 1 1 0 1 1 0 0
0 0 0 0 0 0 0 0 0 0 0 0 0 -0 -0 0 0 0 0 0 0 0 2 1 1 0 0 0 0 0 0 0 0 1 1 2 1 0 0 0 0 0 0 0
0 0 0 0 0 0 0 0 0 0 0 0 0 0 -0 0 0 0 0 0 0 0 2 1 1 0 0 0 0 0 0 0 1 1 1 0 0 0 0 0 0 0 0 0
-0 0 0 0 0 0 0 0 0 0 0 0 0 0 -0 0 0 0 0 0 0 0 1 1 1 1 1 0 0 0 0 0 0 0 0 0 0 0 0 0 0 0 0 0
-0 0 0 0 0 0 0 0 0 0 0 0 0 0 0 0 0 0 0 0 0 0 0 1 1 1 0 0 0 0 0 0 0 0 0 0 0 0 0 0 0 0 0 0
0 0 0 0 0 0 0 0 0 0 0 0 0 0 -0 0 0 0 0 0 0 0 0 1 1 1 0 0 0 0 0 0 0 0 0 0 0 0 0 0 0 0 0 -0
0 0 0 0 0 0 0 0 0 0 0 0 0 0 -0 0 0 0 0 0 0 0 0 1 1 1 0 0 0 0 0 0 0 0 0 0 0 0 -0 0 0 0 0 -0
0 0 0 0 0 0 0 0 0 0 0 0 0 0 0 0 0 0 0 0 0 0 2 2 1 1 0 0 0 0 0 0 0 0 0 0 0 0 0 0 -0 -0 0 -0
0 0 0 0 0 0 0 0 0 0 0 0 0 0 0 0 0 0 0 0 0 2 2 1 0 0 0 0 0 0 0 0 0 0 0 0 0 0 0 0 -0 0 0 0
0 0 0 0 0 0 0 0 0 -0 -0 0 0 0 0 0 0 0 0 0 3 3 1 0 0 0 0 0 0 0 0 0 0 0 0 0 0 0 0 0 0 0 0 0
0 0 0 0 0 0 0 -0 -0 -0 -0 0 0 0 1 0 0 0 2 3 3 1 0 0 0 0 0 0 0 0 0 0 0 0 0 0 0 0 0 0 0 0 0 0
-0 0 0 0 -0 -0 0 0 -0 -0 0 0 0 0 0 0 0 2 2 2 0 0 0 0 0 0 0 0 0 0 0 0 0 0 0 0 0 0 0 0 0 0 0 0
-0 0 0 -0 -0 0 0 -0 -0 -0 -0 0 0 1 1 1 1 1 1 0 0 0 0 0 0 0 0 0 0 0 0 0 0 0 0 0 0 0 0 0 0 0 0 0
0 0 0 0 -0 0 0 -0 -0 0 0 0 0 0 1 1 1 0 0 0 0 0 0 0 0 0 0 0 0 0 0 0 0 0 0 0 0 0 0 0 0 0 0 0
0 -0 0 -0 0 -0 -0 -0 -0 0 0 0 0 0 0 0 0 0 0 0 0 0 0 0 0 0 0 0 0 0 0 0 0 0 0 0 0 0 0 0 0 0 0 0
-0 0 0 0 -0 -0 -0 0 0 0 0 0 0 0 0 0 0 0 0 0 0 0 0 0 0 0 0 0 0 0 0 0 0 0 0 0 0 0 0 0 0 0 0 0
-0 0 0 0 0 0 0 0 0 0 0 0 0 0 0 0 0 0 0 0 0 0 0 0 0 0 0 0 0 0 0 0 0 0 0 0 0 0 0 0 0 0 0 0
-0 -0 0 0 0 -0 0 -0 0 -0 0 0 0 0 0 0 0 0 0 0 0 0 0 0 0 0 0 0 0 0 0 0 0 0 0 0 0 0 0 0 0 0 0 0
0 -0 0 0 0 0 0 -0 0 0 0 0 0 0 0 0 0 0 0 0 0 0 0 0 0 0 0 0 0 0 0 0 0 0 0 0 0 0 0 0 0 0 0 0
-0 -0 0 0 0 0 -0 -0 0 0 0 0 0 0 0 0 0 0 0 0 0 0 0 0 0 0 0 0 0 0 0 0 0 0 0 0 0 0 0 0 0 0 0 0
-0 0 0 0 0 0 -0 0 0 -0 0 0 0 0 0 0 0 0 0 0 0 0 0 0 0 0 0 0 0 0 0 0 0 0 0 0 0 0 0 0 0 0 0 0
0 0 0 0 0 0 -0 0 0 0 0 0 0 0 0 -0 0 0 0 0 0 0 0 0 0 0 0 0 0 0 0 0 0 0 0 0 0 0 0 0 0 0 0 0
0 0 0 0 0 0 0 -0 0 0 0 0 0 0 -0 -0 -0 0 0 0 0 0 0 0 0 0 0 0 0 0 0 0 0 0 0 0 0 0 0 0 0 0 0 0
0 0 0 0 0 0 0 0 0 0 0 0 0 0 0 -0 0 0 0 0 0 0 0 0 0 0 0 0 0 0 0 0 0 0 0 0 0 0 0 0 0 0 0 0
Wind_Speed_500mb
10 7 22 27 19 21 16 23 22 7 16 10 22 14 18 41 30 27 43 33 43 54 71 72 72 71 72 74 67 59 59 58 57 59 57 53 50 46 38 37 31 27 33 37
1 24 34 22 17 24 25 25 34 11 18 24 32 26 15 28 33 32 45 36 48 60 74 71 74 72 68 64 67 67 66 61 66 64 62 56 48 45 43 40 40 38 37 38
28 26 19 24 26 25 28 29 21 18 16 27 24 35 29 30 41 36 51 51 54 79 81 80 78 74 72 74 73 73 73 65 68 67 64 59 46 46 44 44 42 41 43 38
18 7 25 38 39 33 37 20 22 21 17 16 16 13 17 34 31 23 36 48 54 78 83 93 84 81 78 75 74 72 72 71 66 65 66 60 53 47 44 44 41 36 29 29
17 10 14 31 45 41 22 20 23 26 28 6 16 8 14 23 27 20 23 54 52 80 95 95 90 84 78 80 77 78 81 77 70 67 60 53 52 50 43 30 17 20 14 15
40 44 25 30 15 29 19 10 17 25 13 20 25 23 9 17 41 34 16 50 57 77 85 95 91 87 84 80 76 83 86 80 68 62 52 49 50 40 36 27 20 16 13 25
20 20 11 19 18 19 29 19 7 13 9 11 30 17 25 18 27 40 31 45 59 78 84 88 89 85 77 75 77 83 83 76 63 52 53 47 38 23 10 4 11 7 26 5
11 12 11 20 16 14 40 26 11 15 12 14 24 18 13 51 28 34 50 61 60 68 82 85 85 81 78 77 74 73 70 63 54 49 47 38 13 6 7 23 12 24 20 14
9 10 2 22 14 18 23 27 8 4 8 8 11 17 6 21 12 21 35 60 67 72 79 84 82 81 76 71 65 64 57 52 42 40 36 13 28 26 32 21 5 8 21 17
6 13 18 4 13 23 5 18 5 2 4 9 16 26 11 22 19 29 25 33 58 70 70 66 66 65 63 65 64 58 50 46 37 32 28 38 39 17 27 22 18 21 30 14
12 10 7 11 11 15 7 12 4 6 7 5 8 10 5 6 12 39 34 44 62 67 71 74 64 60 65 63 61 53 47 43 36 33 37 45 41 35 37 30 24 27 27 25
8 7 7 11 9 7 11 12 11 8 6 9 5 7 3 14 14 14 21 49 63 74 76 75 72 70 68 64 54 50 41 37 33 31 50 55 52 41 43 37 32 27 26 25
5 7 4 13 4 4 10 17 7 5 5 6 6 7 8 11 14 29 47 61 68 74 81 81 76 78 77 67 59 51 43 42 46 51 52 54 50 48 42 37 34 30 24 18
31 8 6 7 8 6 11 22 12 3 7 12 15 11 14 23 35 34 53 68 69 77 85 85 86 83 80 71 65 61 62 59 59 56 58 57 50 45 43 39 34 28 21 12
10 4 6 18 23 10 15 29 23 12 10 11 19 3 17 26 36 37 64 69 74 74 77 87 95 91 84 80 73 69 67 65 61 59 60 58 56 51 45 38 30 22 15 7
8 6 7 8 4 11 12 22 15 18 26 23 24 9 21 27 47 47 55 69 71 72 76 90 93 95 90 85 80 73 69 61 58 60 62 59 54 47 40 33 28 20 13 11
4 6 6 8 7 18 9 8 2 6 23 8 13 15 37 34 33 35 54 62 74 78 85 89 97 99 89 81 74 69 65 59 57 57 54 49 43 38 31 25 19 16 14 14
8 3 2 3 12 5 8 13 8 5 15 6 26 32 42 47 61 56 58 69 69 82 90 97 98 93 83 73 67 66 61 57 54 52 47 40 33 29 25 21 19 17 15 14
15 8 2 4 5 4 14 19 15 15 15 13 35 37 45 75 81 52 54 67 67 84 102 97 88 84 77 71 66 62 59 53 49 43 37 30 23 25 24 22 22 20 15 17
17 11 4 7 5 7 8 23 35 11 3 19 30 35 40 55 26 14 49 82 84 96 95 91 83 76 71 65 58 57 53 45 40 35 31 27 25 24 23 21 19 16 13 15
12 9 10 11 3 4 12 41 21 2 4 14 25 22 29 22 30 55 60 75 90 91 88 82 78 75 67 57 50 51 46 40 35 31 29 27 26 23 20 19 15 11 7 9
9 8 5 6 4 4 43 39 5 7 25 33 43 55 68 71 71 74 66 83 87 86 83 77 76 69 60 49 42 47 42 37 29 26 25 24 23 21 19 14 13 6 4 6
4 7 7 7 3 17 50 37 46 22 5 39 59 56 90 77 65 68 78 83 84 79 74 68 67 64 53 44 34 38 37 28 23 20 20 22 23 20 18 14 11 6 7 12
6 7 3 7 7 24 41 44 29 35 51 58 58 60 78 93 69 74 76 78 78 70 65 60 58 56 51 39 32 30 28 22 18 19 21 20 17 19 15 14 10 9 10 17
6 16 10 3 7 28 52 47 33 53 56 63 64 62 79 92 74 67 65 66 68 61 55 50 50 48 45 35 31 28 24 20 20 20 23 24 19 15 13 10 8 8 9 10
13 7 6 4 19 9 21 27 35 53 59 61 75 71 63 82 82 70 63 57 58 53 47 47 44 41 37 30 28 25 24 21 19 22 27 25 21 16 13 11 9 11 12 14
Wind_Direction_500mb
206 164 221 219 208 240 253 261 260 264 285 332 256 304 289 282 273 275 265 235 224 220 211 209 207 204 201 201 197 199 202 203 202 201 202 202 205 204 199 194 197 198 202 207
332 233 238 233 209 230 241 251 255 265 260 275 282 284 291 269 257 243 253 234 223 213 209 202 205 206 205 204 202 204 206 205 204 203 201 201 203 200 200 203 210 212 219 216
232 234 221 235 232 229 228 232 261 250 269 276 280 283 271 257 245 234 252 249 211 205 201 203 203 206 207 207 207 205 208 208 205 203 204 208 204 205 212 222 230 236 235 223
251 244 246 241 234 220 240 223 237 241 238 248 204 280 236 230 227 217 235 236 194 199 198 202 202 200 205 202 201 203 209 208 208 208 210 215 211 210 219 233 237 236 218 182
243 216 230 237 237 216 231 210 209 227 224 244 246 251 261 222 211 203 222 226 194 191 191 192 193 193 193 196 198 202 206 208 208 209 212 218 214 215 222 208 184 175 166 98
255 259 260 227 221 217 223 186 220 239 204 229 218 211 252 201 203 198 201 208 194 186 186 187 186 187 190 193 197 202 207 210 209 208 210 214 217 209 218 196 153 130 127 137
301 268 204 196 224 228 202 153 179 217 197 224 194 215 245 246 216 202 196 194 189 184 185 184 183 185 186 192 197 203 206 208 206 203 214 210 219 231 196 219 241 209 131 341
285 311 151 169 197 193 188 182 169 184 174 216 238 221 222 240 248 212 187 202 184 182 185 187 186 186 190 193 198 202 204 208 211 214 214 215 190 60 330 24 301 290 211 185
282 253 127 191 192 196 174 212 204 318 207 159 186 245 235 227 189 164 158 185 177 180 183 187 188 190 191 193 196 200 198 198 199 199 207 205 130 118 114 126 213 237 196 234
280 281 266 341 173 212 217 155 188 258 215 190 208 214 215 164 185 161 163 177 167 166 171 171 176 182 185 185 185 189 190 192 190 185 179 153 152 132 152 158 177 191 209 193
244 222 332 129 198 187 205 177 208 148 248 270 175 222 159 151 171 165 175 158 151 146 149 159 161 162 165 171 173 173 177 180 181 181 172 173 168 171 174 177 172 168 177 176
253 276 249 233 10 286 180 161 189 150 230 227 253 245 238 214 200 148 134 138 140 142 142 151 155 158 151 151 157 163 169 169 173 175 164 166 168 167 172 163 154 158 160 160
329 270 357 338 30 19 160 228 173 108 359 294 342 270 28 121 129 140 130 132 135 133 131 139 147 150 144 146 145 146 147 146 145 151 160 159 157 155 151 150 154 154 156 159
225 232 243 223 237 161 186 169 112 94 215 318 275 128 94 127 133 133 127 129 131 126 128 135 135 139 135 137 137 135 132 134 137 143 146 147 146 147 146 143 143 145 147 148
308 247 230 260 256 261 152 154 156 193 236 261 321 129 132 139 140 129 128 126 118 119 123 129 132 135 135 134 133 133 133 135 138 140 139 138 141 143 142 139 140 143 139 117
318 305 345 299 159 181 145 149 191 226 244 230 274 181 111 99 109 115 121 121 118 118 122 128 134 136 133 133 135 135 134 135 138 137 136 137 137 136 136 135 135 138 123 85
281 306 353 344 17 116 80 59 284 10 261 210 236 123 100 95 97 106 114 118 118 121 122 125 130 132 133 133 134 133 132 136 138 135 133 134 136 135 132 128 124 103 86 69
335 296 353 7 345 50 79 21 2 306 338 126 80 98 94 90 81 83 106 115 117 121 124 128 132 131 131 133 133 131 131 136 133 129 131 130 131 127 122 115 106 99 85 73
354 293 62 100 345 3 23 10 353 11 18 58 111 104 103 101 85 54 91 110 115 121 128 128 128 127 130 132 131 131 131 131 131 128 127 126 122 119 119 118 115 101 70 63
1 358 119 56 37 39 24 326 331 351 312 276 126 123 130 123 97 88 101 119 119 124 125 127 129 130 132 129 133 133 130 131 130 131 128 125 122 123 125 122 115 99 74 51
341 4 27 59 66 45 9 326 321 248 36 179 109 82 94 99 111 116 115 115 125 128 129 130 132 130 127 132 138 131 130 128 124 124 125 126 125 128 122 126 131 125 88 50
349 351 345 341 30 59 342 330 329 348 341 119 99 103 96 98 106 111 114 121 129 130 132 134 129 127 129 134 142 130 127 117 121 129 130 126 125 126 121 129 130 113 47 43
30 21 303 353 33 304 306 266 286 292 319 104 116 121 123 107 99 106 116 127 128 129 129 130 127 124 125 129 132 132 118 121 125 128 128 127 126 119 114 118 113 70 27 3
340 42 308 310 319 322 344 27 80 110 107 115 118 122 123 122 123 114 118 124 124 126 127 128 129 126 125 126 126 116 115 119 125 137 137 130 120 112 109 103 89 61 2 344
306 315 307 313 332 332 12 27 70 103 118 122 123 119 125 126 126 131 129 128 125 125 128 132 130 125 122 126 120 114 113 113 125 127 119 118 117 109 106 93 86 42 16 17
337 344 354 356 328 304 344 52 88 99 106 118 129 125 123 135 137 140 134 128 127 129 131 126 124 121 118 121 118 117 116 120 124 132 121 116 116 109 104 90 80 73 70 68
Wind_Speed_850mb
10 7 22 27 19 21 16 23 22 7 16 10 22 14 18 41 30 27 43 33 43 54 71 72 72 71 72 74 67 59 59 58 57 59 57 53 50 46 38 37 31 27 33 37
1 24 34 22 17 24 25 25 34 11 18 24 32 26 15 28 33 32 45 36 48 60 74 71 74 72 68 64 67 67 66 61 66 64 62 56 48 45 43 40 40 38 37 38
28 26 19 24 26 25 28 29 21 18 16 27 24 35 29 30 41 36 51 51 54 79 81 80 78 74 72 74 73 73 73 65 68 67 64 59 46 46 44 44 42 41 43 38
18 7 25 38 39 33 37 20 22 21 17 16 16 13 17 34 31 23 36 48 54 78 83 93 84 81 78 75 74 72 72 71 66 65 66 60 53 47 44 44 41 36 29 29
17 10 14 31 45 41 22 20 23 26 28 6 16 8 14 23 27 20 23 54 52 80 95 95 90 84 78 80 77 78 81 77 70 67 60 53 52 50 43 30 17 20 14 15
40 44 25 30 15 29 19 10 17 25 13 20 25 23 9 17 41 34 16 50 57 77 85 95 91 87 84 80 76 83 86 80 68 62 52 49 50 40 36 27 20 16 13 25
20 20 11 19 18 19 29 19 7 13 9 11 30 17 25 18 27 40 31 45 59 78 84 88 89 85 77 75 77 83 83 76 63 52 53 47 38 23 10 4 11 7 26 5
11 12 11 20 16 14 40 26 11 15 12 14 24 18 13 51 28 34 50 61 60 68 82 85 85 81 78 77 74 73 70 63 54 49 47 38 13 6 7 23 12 24 20 14
9 10 2 22 14 18 23 27 8 4 8 8 11 17 6 21 12 21 35 60 67 72 79 84 82 81 76 71 65 64 57 52 42 40 36 13 28 26 32 21 5 8 21 17
6 13 18 4 13 23 5 18 5 2 4 9 16 26 11 22 19 29 25 33 58 70 70 66 66 65 63 65 64 58 50 46 37 32 28 38 39 17 27 22 18 21 30 14
12 10 7 11 11 15 7 12 4 6 7 5 8 10 5 6 12 39 34 44 62 67 71 74 64 60 65 63 61 53 47 43 36 33 37 45 41 35 37 30 24 27 27 25
8 7 7 11 9 7 11 12 11 8 6 9 5 7 3 14 14 14 21 49 63 74 76 75 72 70 68 64 54 50 41 37 33 31 50 55 52 41 43 37 32 27 26 25
5 7 4 13 4 4 10 17 7 5 5 6 6 7 8 11 14 29 47 61 68 74 81 81 76 78 77 67 59 51 43 42 46 51 52 54 50 48 42 37 34 30 24 18
31 8 6 7 8 6 11 22 12 3 7 12 15 11 14 23 35 34 53 68 69 77 85 85 86 83 80 71 65 61 62 59 59 56 58 57 50 45 43 39 34 28 21 12
10 4 6 18 23 10 15 29 23 12 10 11 19 3 17 26 36 37 64 69 74 74 77 87 95 91 84 80 73 69 67 65 61 59 60 58 56 51 45 38 30 22 15 7
8 6 7 8 4 11 12 22 15 18 26 23 24 9 21 27 47 47 55 69 71 72 76 90 93 95 90 85 80 73 69 61 58 60 62 59 54 47 40 33 28 20 13 11
4 6 6 8 7 18 9 8 2 6 23 8 13 15 37 34 33 35 54 62 74 78 85 89 97 99 89 81 74 69 65 59 57 57 54 49 43 38 31 25 19 16 14 14
8 3 2 3 12 5 8 13 8 5 15 6 26 32 42 47 61 56 58 69 69 82 90 97 98 93 83 73 67 66 61 57 54 52 47 40 33 29 25 21 19 17 15 14
15 8 2 4 5 4 14 19 15 15 15 13 35 37 45 75 81 52 54 67 67 84 102 97 88 84 77 71 66 62 59 53 49 43 37 30 23 25 24 22 22 20 15 17
17 11 4 7 5 7 8 23 35 11 3 19 30 35 40 55 26 14 49 82 84 96 95 91 83 76 71 65 58 57 53 45 40 35 31 27 25 24 23 21 19 16 13 15
12 9 10 11 3 4 12 41 21 2 4 14 25 22 29 22 30 55 60 75 90 91 88 82 78 75 67 57 50 51 46 40 35 31 29 27 26 23 20 19 15 11 7 9
9 8 5 6 4 4 43 39 5 7 25 33 43 55 68 71 71 74 66 83 87 86 83 77 76 69 60 49 42 47 42 37 29 26 25 24 23 21 19 14 13 6 4 6
4 7 7 7 3 17 50 37 46 22 5 39 59 56 90 77 65 68 78 83 84 79 74 68 67 64 53 44 34 38 37 28 23 20 20 22 23 20 18 14 11 6 7 12
6 7 3 7 7 24 41 44 29 35 51 58 58 60 78 93 69 74 76 78 78 70 65 60 58 56 51 39 32 30 28 22 18 19 21 20 17 19 15 14 10 9 10 17
6 16 10 3 7 28 52 47 33 53 56 63 64 62 79 92 74 67 65 66 68 61 55 50 50 48 45 35 31 28 24 20 20 20 23 24 19 15 13 10 8 8 9 10
13 7 6 4 19 9 21 27 35 53 59 61 75 71 63 82 82 70 63 57 58 53 47 47 44 41 37 30 28 25 24 21 19 22 27 25 21 16 13 11 9 11 12 14
Wind_Direction_850mb
206 164 221 219 208 240 253 261 260 264 285 332 256 304 289 282 273 275 265 235 224 220 211 209 207 204 201 201 197 199 202 203 202 201 202 202 205 204 199 194 197 198 202 207
332 233 238 233 209 230 241 251 255 265 260 275 282 284 291 269 257 243 253 234 223 213 209 202 205 206 205 204 202 204 206 205 204 203 201 201 203 200 200 203 210 212 219 216
232 234 221 235 232 229 228 232 261 250 269 276 280 283 271 257 245 234 252 249 211 205 201 203 203 206 207 207 207 205 208 208 205 203 204 208 204 205 212 222 230 236 235 223
251 244 246 241 234 220 240 223 237 241 238 248 204 280 236 230 227 217 235 236 194 199 198 202 202 200 205 202 201 203 209 208 208 208 210 215 211 210 219 233 237 236 218 182
243 216 230 237 237 216 231 210 209 227 224 244 246 251 261 222 211 203 222 226 194 191 191 192 193 193 193 196 198 202 206 208 208 209 212 218 214 215 222 208 184 175 166 98
255 259 260 227 221 217 223 186 220 239 204 229 218 211 252 201 203 198 201 208 194 186 186 187 186 187 190 193 197 202 207 210 209 208 210 214 217 209 218 196 153 130 127 137
301 268 204 196 224 228 202 153 179 217 197 224 194 215 245 246 216 202 196 194 189 184 185 184 183 185 186 192 197 203 206 208 206 203 214 210 219 231 196 219 241 209 131 341
285 311 151 169 197 193 188 182 169 184 174 216 238 221 222 240 248 212 187 202 184 182 185 187 186 186 190 193 198 202 204 208 211 214 214 215 190 60 330 24 301 290 211 185
282 253 127 191 192 196 174 212 204 318 207 159 186 245 235 227 189 164 158 185 177 180 183 187 188 190 191 193 196 200 198 198 199 199 207 205 130 118 114 126 213 237 196 234
280 281 266 341 173 212 217 155 188 258 215 190 208 214 215 164 185 161 163 177 167 166 171 171 176 182 185 185 185 189 190 192 190 185 179 153 152 132 152 158 177 191 209 193
244 222 332 129 198 187 205 177 208 148 248 270 175 222 159 151 171 165 175 158 151 146 149 159 161 162 165 171 173 173 177 180 181 181 172 173 168 171 174 177 172 168 177 176
253 276 249 233 10 286 180 161 189 150 230 227 253 245 238 214 200 148 134 138 140 142 142 151 155 158 151 151 157 163 169 169 173 175 164 166 168 167 172 163 154 158 160 160
329 270 357 338 30 19 160 228 173 108 359 294 342 270 28 121 129 140 130 132 135 133 131 139 147 150 144 146 145 146 147 146 145 151 160 159 157 155 151 150 154 154 156 159
225 232 243 223 237 161 186 169 112 94 215 318 275 128 94 127 133 133 127 129 131 126 128 135 135 139 135 137 137 135 132 134 137 143 146 147 146 147 146 143 143 145 147 148
308 247 230 260 256 261 152 154 156 193 236 261 321 129 132 139 140 129 128 126 118 119 123 129 132 135 135 134 133 133 133 135 138 140 139 138 141 143 142 139 140 143 139 117
318 305 345 299 159 181 145 149 191 226 244 230 274 181 111 99 109 115 121 121 118 118 122 128 134 136 133 133 135 135 134 135 138 137 136 137 137 136 136 135 135 138 123 85
281 306 353 344 17 116 80 59 284 10 261 210 236 123 100 95 97 106 114 118 118 121 122 125 130 132 133 133 134 133 132 136 138 135 133 134 136 135 132 128 124 103 86 69
335 296 353 7 345 50 79 21 2 306 338 126 80 98 94 90 81 83 106 115 117 121 124 128 132 131 131 133 133 131 131 136 133 129 131 130 131 127 122 115 106 99 85 73
354 293 62 100 345 3 23 10 353 11 18 58 111 104 103 101 85 54 91 110 115 121 128 128 128 127 130 132 131 131 131 131 131 128 127 126 122 119 119 118 115 101 70 63
1 358 119 56 37 39 24 326 331 351 312 276 126 123 130 123 97 88 101 119 119 124 125 127 129 130 132 129 133 133 130 131 130 131 128 125 122 123 125 122 115 99 74 51
341 4 27 59 66 45 9 326 321 248 36 179 109 82 94 99 111 116 115 115 125 128 129 130 132 130 127 132 138 131 130 128 124 124 125 126 125 128 122 126 131 125 88 50
349 351 345 341 30 59 342 330 329 348 341 119 99 103 96 98 106 111 114 121 129 130 132 134 129 127 129 134 142 130 127 117 121 129 130 126 125 126 121 129 130 113 47 43
30 21 303 353 33 304 306 266 286 292 319 104 116 121 123 107 99 106 116 127 128 129 129 130 127 124 125 129 132 132 118 121 125 128 128 127 126 119 114 118 113 70 27 3
340 42 308 310 319 322 344 27 80 110 107 115 118 122 123 122 123 114 118 124 124 126 127 128 129 126 125 126 126 116 115 119 125 137 137 130 120 112 109 103 89 61 2 344
306 315 307 313 332 332 12 27 70 103 118 122 123 119 125 126 126 131 129 128 125 125 128 132 130 125 122 126 120 114 113 113 125 127 119 118 117 109 106 93 86 42 16 17
337 344 354 356 328 304 344 52 88 99 106 118 129 125 123 135 137 140 134 128 127 129 131 126 124 121 118 121 118 117 116 120 124 132 121 116 116 109 104 90 80 73 70 68